Flag for Canada Weather past 2 weeks in Clarington, Ontario, Canada

Now
66 °F

Scattered clouds.


Feels Like: 66 °F
Forecast: 54 / 71 °F
Wind: 5 mph from South

Location: Peterborough Airport

Current Time: Aug 29, 2014 at 12:21:36 PM

Latest Report: Aug 29, 2014 at 11:00 AM


Visibility: 9 mi

Pressure: 30.21 "Hg

Humidity: 64%

Dew point: 54 °F

Location of ClaringtonLocation

Historic Weather in Clarington — Graph

°F

Clarington temperature yesterday

Maximum temperature yesterday: 72 °F (at 3:00 PM)
Minimum temperature yesterday: 48 °F (at 7:00 AM)
Average temperature yesterday: 61 °F

Past Weeks' High & Low Weather Summary

 TemperatureHumidityPressure
High81 °F (Aug 26, 2:00 PM)100% (Aug 16, 9:00 PM)30.22 "Hg (Aug 16, 9:00 PM)
Low43 °F (Aug 29, 5:50 AM)46% (Aug 15, 3:00 PM)29.77 "Hg (Aug 16, 6:00 PM)
Average62 °F84%30.00 "Hg
* Reported Aug 14 11:00 AM — Aug 29 11:00 AM, Clarington, Weather by CustomWeather, © 2014

Note: Actual official high and low records may vary slightly from our data, if they occured in-between our weather recording intervals... More about our weather records

Advertising

Clarington weather history for previous 24 hours

 ConditionsComfort  
Time TempWeatherWind HumidityBarometerVisibility
11:00 AM
Aug 29
66 °FScattered clouds.5 mph64%30.21 "Hg9 mi
10:00 AM63 °FPassing clouds.2 mph73%30.22 "Hg9 mi
9:00 AM57 °FPassing clouds.2 mph88%30.22 "Hg9 mi
8:00 AM50 °FScattered clouds.No wind100%30.22 "Hg9 mi
7:01 AM45 °FClear.No wind100%30.21 "Hg9 mi
6:49 AM45 °FFog.No wind100%30.20 "Hg1 mi
6:00 AM43 °FClear.No wind100%30.19 "Hg9 mi
5:50 AM43 °FFog.No wind100%30.18 "Hg6 mi
5:03 AM45 °FPassing clouds.No wind100%30.18 "Hg7 mi
4:58 AM45 °FFog.No wind100%30.17 "Hg3 mi
4:00 AM46 °FClear.No wind93%30.17 "Hg9 mi
3:01 AM46 °FClear.No wind100%30.17 "Hg9 mi
3:00 AM46 °FFog.No wind100%30.17 "Hg4 mi
2:51 AM48 °FFog.2 mph94%30.16 "Hg3 mi
2:03 AM48 °FFog.No wind100%30.17 "Hg5 mi
1:00 AM50 °FClear.2 mph100%30.17 "Hg9 mi
12:00 AM52 °FClear.No wind94%30.16 "Hg9 mi
11:00 PM
Aug 28
57 °FClear.3 mph82%30.15 "Hg9 mi
10:00 PM59 °FClear.7 mph77%30.13 "Hg9 mi
9:00 PM59 °FClear.7 mph77%30.11 "Hg9 mi
8:00 PM63 °FSunny.7 mph64%30.09 "Hg9 mi
7:00 PM66 °FScattered clouds.8 mph56%30.08 "Hg9 mi
6:00 PM68 °FPartly sunny.10 mph53%30.07 "Hg9 mi
5:00 PM70 °FPartly sunny.10 mph50%30.06 "Hg9 mi
4:00 PM72 °FPartly sunny.9 mph47%30.06 "Hg9 mi
3:00 PM72 °FPartly sunny.14 mph47%30.05 "Hg9 mi
2:00 PM70 °FPartly sunny.13 mph46%30.06 "Hg9 mi
1:00 PM66 °FScattered clouds.10 mph60%30.07 "Hg9 mi
12:00 PM66 °FScattered clouds.13 mph60%30.07 "Hg9 mi
Weather by CustomWeather, © 2014

See weather overviewHow to use our weather pages